星链-34110 (STARLINK-34110)

导读

STARLINK-34110是美国SpaceX星链星座的一颗卫星,于2025年5月4日由美国发射升空。星链项目旨在构建全球卫星互联网星座,为全球偏远及网络欠发达地区提供高速互联网接入服务,该卫星入轨后将进一步扩充星链星座的规模,提升星座的全球服务覆盖能力与网络稳定性。

基本信息
目录编号:
63811
目录名称:
STARLINK-34110
国际标识:
2025-092H
轨道中心:
EARTH
卫星名称:
星链-34110
卫星全名:
星链-34110 (STARLINK-34110)
卫星状态:
已陨落 最后检测时间 2026-06-02
发射日期:
2025-05-04 UTC
国别 :
美国 (US)
星等 :
--
轨道信息
数据来源 国际轨道数据
星历时间: 2026-06-02T02:07:40+0800
轨道信息已过期12天
半长轴: 6617.207km
偏心率: 0.0022763
轨道倾角: 42.981°
近地点辐角 267.283°
升交点赤经 15.319°
平近点角 92.544°
近地点: 224.007km
远地点: 254.133km
周期: 89.284分钟
每日圈数: 16.12838
详细信息
固有亮度:
5
最大亮度:
2.5
卫星平台:
Starlink V1.0
覆盖范围:
全球
运营商:
太空探索技术公司
运营商所在国:
美国
制造商(研发单位):
太空探索技术公司
制造商所在国:
美国
使用方式:
暂无
卫星简介
Starlink 计划是 SpaceX 推出的全球卫星互联网项目,通过发射低轨道卫星,为全球尤其是偏远地区提供高速、低延迟的互联网服务。自 2019 年起,Starlink 已部署数千颗卫星,旨在缩小全球数字鸿沟,推动互联网普及。该项目还为军事、航空等行业提供通信支持,带来广泛经济效益。